Showing default

QIANFAN-51, 62252

Orbit data source: Space-Track

QIANFAN-51, 62252 is a Chinese payload satellite in LEO that was launched on Thu, 05 Dec 2024 UTC via a CHANG ZHENG 6A launch vehicle from the Taiyaun Space Center, China (TSC). Payload-class satellites include a variety of spacecraft equipped with specific instruments for various scientific and technological missions. These include communications satellites like Starlink; space stations such as the ISS; scientific satellites like the Hubble; Earth observation satellites from companies like Planet Labs, Umbra, and HawkEye 360; GPS; miniature CubeSats for education and research; and military/defense satellites.

Loading next visibility...
Identifier
62252, 2024-232R
Orbit
LEO
Country
Flag of CNCN / PRC
Related business
Manufacturer
SECM
Mission
Operational Commercial Communications
Bus & Motor
QIANFAN, Unknown motor
Mass
267 kg wet, ~267 kg dry
Launch date (UTC)
2024-12-05 (10 months ago)
Launch vehicle
CHANG ZHENG 6A
Launch site
Taiyaun Space Center, China (TSC)
Object type
Payload
Rocket body
Debris
Shape & HBR
Box + 1 Pan, 5.0 m
Radar Cross Section
13.200 m², Large (>1 m²)

Expand to show TLE details & history
Last TLE update: 10 hours ago

TLE from 10 hours ago
0 QIANFAN-51
1 62252U 24232R   25287.89315744  .00000155  00000-0  22081-3 0  9992
2 62252  89.0022  47.1623 0013371  18.1039 342.0586 13.50976175 59916
Epoch: 2025-10-14T21:26Z
TLE epoch observation values (Epoch: 2025-10-14T21:26:08.802Z)
Latitude
-0°
Longitude
61.95057°
Altitude
1,062.149 km
Speed
7.325 km/s
True Right ascension
03h 08m 38s
True Declination
0° 00' 00"
Sunlit
Object was in full shadow at epoch
Visualization orbit readout
Latitude
Unknown
Longitude
Unknown
Altitude
Unknown
Speed
Unknown
Apparent Right ascension
Unknown
Apparent Declination
Unknown
Sunlit
N/A
Visualization observer readout
Local Sidereal Time
02:16:30
Azimuth
Unknown
Elevation
Unknown
Doppler factor
Unknown
Orbital elements
Apogee altitude
1,075.673 km
Perigee altitude
1,055.767 km
Semi-major axis
7,443.857 km
Eccentricity
0.00134
Inclination
89.0022°
RAAN
47.1623°
Arg. of periapsis
18.1039°
True anomaly
342.01133°
Mean anomaly
342.0586°
Eccentric anomaly
342.03497°
Mean motion
3.37945 °/min
Orbital period
106.53 mins
BSTAR
0.00022081
Loading maneuver chart data...
Computing Atmospheric mass density...
Loading historical data...
Loading historical data...
Loading historical data...
Loading historical data...
Loading historical data...
Loading historical data...
Loading historical data...

Documentation

Showing up to 5 results
|